Location: Sevilla
(37.3933°N, 5.9839°W)
Time: 12:41:33
(UTC+02:00)

S-56A Canister/Altair - Pass Details

Date: 29 June 2024
Orbit: 638 x 2488 km, 38.9° (Epoch: 14 July)

Event Time Altitude Azimuth Distance (km) Brightness Sun altitude
Rises 23:29:39 0° 274° (W) 3,885 11.9 -16.4°
Reaches altitude 10° 23:31:58 10° 275° (W) 3,124 11.3 -16.7°
Maximum altitude 23:39:58 83° 4° (N) 1,604 9.1 -17.7°
Drops below altitude 10° 23:52:18 10° 93° (E) 4,635 11.1 -19.3°
Sets 23:56:29 0° 94° (E) 5,844 11.6 -19.8°
